Regional Weather Roundup
Issued by NWS

Home | Current Version | Previous Version | Text Only | Print | Product List | Glossary Off
Versions: 1 2 3 4 5 6 7 8 9 10 11 12 13 14 15 16 17 18 19 20 21 22 23 24 25 26 27 28 29 30 31 32 33 34 35 36 37 38 39 40 41 42 43 44 45 46 47 48 49 50

000
ASUS43 KIND 230109
RWRIN

WEATHER ROUNDUP FOR INDIANA
NATIONAL WEATHER SERVICE INDIANAPOLIS IN
800 PM EST MON JAN 22 2018

NOTE: "FAIR" INDICATES FEW OR NO CLOUDS BELOW 12,000 FEET WITH NO
SIGNIFICANT WEATHER AND/OR OBSTRUCTIONS TO VISIBILITY.

* - STATION DOES NOT REPORT WEATHER SUCH AS PRECIPITATION OR FOG.

+ - STATION NOT QUALITY CONTROLLED BY THE NATIONAL WEATHER SERVICE.
    USE DATA WITH CAUTION...ESPECIALLY DEWPOINT AND RELATIVE
    HUMIDITY OBSERVATIONS.

INZ001>003-010>013-019-020-230200-
NORTHWEST INDIANA

CITY           SKY/WX    TMP DP  RH WIND       PRES   REMARKS
GARY /AIRPORT/ PTCLDY    52  46  82 S9        29.46F
KNOX *+        CLOUDY    46  46 100 SE9       29.50F
LA PORTE +     FAIR      47  46  95 S6        29.50F
MICHIGAN CITY+ MOCLDY    48  46  93 S5        29.49F
MONTICELLO +   FAIR      49  45  87 SE5       29.49F
RENSSELAER +   FAIR      46  41  81 S9        29.48F
VALPARAISO     FAIR      51  47  86 MISG      29.48F

$$

LMZ046-743>745-230200-
SOUTHERN LAKE MICHIGAN

STATION/POSITION TIME  TEMP    WIND        PRES    WAVE
                       AIR SEA DIR/SP/G            HT
                 (UTC) (F)     (DEG/KT/KT) (MB)    (FT)
BURNS HARBOR     0040   51     160/ 11/ 17  998.6F
MICHIGAN CITY    0040   50     150/ 10/ 11   N/A

$$

INZ004-005-014>016-021>024-230200-
NORTH CENTRAL INDIANA

CITY           SKY/WX    TMP DP  RH WIND       PRES   REMARKS
ELKHART        MOCLDY    50  46  87 SE7       29.54R
GOSHEN         MOCLDY    50  47  89 S13       29.53F
LOGANSPORT +   CLOUDY    43  43 100 SE7       29.52F
PERU/GRISSOM   PTCLDY    46  46 100 SE8       29.52F
ROCHESTER +    FAIR      50  46  87 S6        29.53F
SOUTH BEND     MOCLDY    49  46  90 S9        29.52F
WARSAW +       CLOUDY    48  46  93 S5        29.54S

$$

INZ006>009-017-018-025>027-230200-
NORTHEAST INDIANA

CITY           SKY/WX    TMP DP  RH WIND       PRES   REMARKS
AUBURN +       MOCLDY   N/A N/A N/A S3        29.58S
FORT WAYNE     CLOUDY    50  47  89 S12       29.58R
HUNTINGTON +   FAIR      50  48  92 S8        29.55F
KENDALLVILLE + CLOUDY    49  48  98 S7        29.56S

$$

INZ028-029-035-036-043>045-051>053-230200-
WEST CENTRAL INDIANA

CITY           SKY/WX    TMP DP  RH WIND       PRES   REMARKS
CRAWFORDSVL +  TSTM      48  42  81 MISG      29.52R
GREENCASTLE +  MOCLDY    52  45  76 SW12G21   29.54S
LAFAYETTE      LGT RAIN  50  47  89 S12G20    29.50F
TERRE HAUTE    FAIR      51  43  74 SW15      29.55R

$$

INZ030>032-037>040-046>048-054>057-064-065-230200-
CENTRAL INDIANA

CITY           SKY/WX    TMP DP  RH WIND       PRES   REMARKS
COLUMBUS       PTCLDY    46  45  93 S9        29.57F
FISHERS *+       N/A     48  48 100 S10       29.54
FRANKFORT +    FAIR      48  45  90 S5        29.53F
INDIANAPOLIS   FAIR      52  47  83 S14       29.54F
-EAGLE CREEK   FAIR      52  46  80 S9        29.53F
MARION +       FAIR      49  47  91 S15       29.56F
MT COMFORT *+  FAIR      48  48 100 S8        29.55F
SHELBYVILLE    NOT AVBL
ZIONSVILLE +   FAIR      50  46  87 S10G18    29.54F

$$

INZ033-034-041-042-049-050-058-059-230200-
EAST CENTRAL INDIANA

CITY           SKY/WX    TMP DP  RH WIND       PRES   REMARKS
MUNCIE         MOCLDY    54  48  80 S12G22    29.56F
RICHMOND +     CLOUDY    50  48  93 S13       29.59F

$$

INZ060-061-067>069-081>083-085>088-230200-
SOUTHWEST INDIANA

CITY           SKY/WX    TMP DP  RH WIND       PRES   REMARKS
EVANSVILLE     FAIR      52  37  56 SW25G43   29.64R
HUNTINGBURG +  FAIR      54  45  71 W20G25    29.62R
WASHINGTON +   FAIR      54  37  52 SW18G29   29.59R

$$

INZ062-063-066-070>080-084-089>092-230200-
SOUTH CENTRAL AND SOUTHEAST INDIANA

CITY           SKY/WX    TMP DP  RH WIND       PRES   REMARKS
BATESVILLE *+    N/A    N/A N/A N/A MISG        N/A
BEDFORD +      MOCLDY    54  46  76 S15G22    29.57  THUNDER
BLOOMINGTON    FAIR      54  47  77 S15       29.55F
FRENCH LICK *+ FAIR      52  46  82 S8        29.60R
MADISON *+     MOCLDY    54  50  87 S10       29.61F
NORTH VERNON + MOCLDY    52  48  87 S9        29.59F
SEYMOUR +      FAIR      54  48  82 S9        29.58F

$$





USA.gov is the U.S. government's official web portal to all federal, state and local government web resources and services.